| time (UTC) | temp F | wind direction | speed MPH | gust MPH | rain 1hr in | rain 24hr in | rain mn in | humidity % | barometer mb |
| 20260510071006 | 69 | 95 | 5.0 | 5.0 | 0.00 | 0.10 | 0.00 | 95 | 1010.5 |
| 20260510070505 | 69 | 95 | 3.0 | 5.0 | 0.00 | 0.10 | 0.00 | 95 | 1010.5 |
| 20260510070005 | 69 | 81 | 4.0 | 6.0 | 0.00 | 0.10 | 0.00 | 95 | 1010.5 |
| 20260510065504 | 70 | 67 | 4.0 | 5.0 | 0.00 | 0.10 | 0.00 | 95 | 1010.5 |
| 20260510065005 | 70 | 69 | 5.0 | 6.0 | 0.00 | 0.10 | 0.00 | 95 | 1010.6 |
| 20260510064005 | 69 | 61 | 5.0 | 5.0 | 0.00 | 0.10 | 0.00 | 94 | 1010.6 |
| 20260510063505 | 70 | 84 | 2.0 | 3.0 | 0.00 | 0.10 | 0.00 | 94 | 1010.6 |
| 20260510063004 | 70 | 84 | 3.0 | 5.0 | 0.00 | 0.10 | 0.00 | 94 | 1010.6 |
| 20260510062505 | 70 | 84 | 5.0 | 6.0 | 0.00 | 0.10 | 0.00 | 93 | 1010.7 |
| 20260510062004 | 71 | 99 | 5.0 | 7.0 | 0.00 | 0.10 | 0.00 | 93 | 1010.7 |
| 20260510061505 | 70 | 99 | 6.0 | 7.0 | 0.00 | 0.10 | 0.00 | 93 | 1010.8 |
| 20260510061004 | 70 | 85 | 5.0 | 8.0 | 0.00 | 0.10 | 0.00 | 94 | 1010.7 |
| 20260510060504 | 70 | 85 | 5.0 | 6.0 | 0.00 | 0.10 | 0.00 | 94 | 1010.7 |
| 20260510055701 | 70 | 80 | 6.0 | 7.0 | 0.00 | 0.10 | 0.00 | 93 | 1010.7 |
| 20260510055202 | 70 | 99 | 6.0 | 6.0 | 0.00 | 0.10 | 0.00 | 94 | 1010.7 |
| 20260510054701 | 70 | 76 | 5.0 | 7.0 | 0.00 | 0.10 | 0.00 | 94 | 1010.7 |
| 20260510054201 | 70 | 67 | 7.0 | 7.0 | 0.00 | 0.10 | 0.00 | 94 | 1010.8 |
| 20260510053701 | 70 | 78 | 5.0 | 5.0 | 0.00 | 0.10 | 0.00 | 94 | 1010.6 |
| 20260510053200 | 70 | 84 | 3.0 | 3.0 | 0.00 | 0.10 | 0.00 | 94 | 1010.6 |
| 20260510052701 | 70 | 84 | 2.0 | 3.0 | 0.00 | 0.10 | 0.00 | 94 | 1010.5 |
| 20260510052201 | 70 | 84 | 5.0 | 5.0 | 0.00 | 0.10 | 0.00 | 93 | 1010.5 |
| 20260510051701 | 70 | 85 | 5.0 | 7.0 | 0.00 | 0.10 | 0.00 | 93 | 1010.5 |
| 20260510051200 | 70 | 88 | 6.0 | 7.0 | 0.00 | 0.10 | 0.00 | 92 | 1010.5 |
| 20260510050700 | 71 | 92 | 6.0 | 7.0 | 0.00 | 0.10 | 0.00 | 91 | 1010.4 |
| 20260510050201 | 71 | 99 | 6.0 | 7.0 | 0.00 | 0.10 | 0.00 | 91 | 1010.4 |
| 20260510045700 | 71 | 97 | 6.0 | 7.0 | 0.00 | 0.10 | 0.10 | 92 | 1010.4 |
| 20260510045201 | 71 | 83 | 6.0 | 7.0 | 0.00 | 0.10 | 0.10 | 91 | 1010.2 |
| 20260510043700 | 72 | 190 | 3.0 | 6.0 | 0.00 | 0.10 | 0.10 | 87 | 1009.8 |
| 20260510043200 | 72 | 182 | 3.0 | 6.0 | 0.00 | 0.10 | 0.10 | 87 | 1009.8 |
| 20260510042701 | 72 | 176 | 3.0 | 6.0 | 0.00 | 0.10 | 0.10 | 88 | 1009.8 |
| 20260510042201 | 72 | 175 | 3.0 | 6.0 | 0.00 | 0.10 | 0.10 | 87 | 1009.8 |
| 20260510041200 | 72 | 151 | 4.0 | 6.0 | 0.00 | 0.10 | 0.10 | 86 | 1009.8 |
| 20260510040700 | 72 | 160 | 4.0 | 7.0 | 0.00 | 0.10 | 0.10 | 85 | 1009.8 |
| 20260510040159 | 73 | 126 | 3.0 | 6.0 | 0.00 | 0.10 | 0.10 | 85 | 1009.8 |
| 20260510035659 | 73 | 132 | 5.0 | 7.0 | 0.00 | 0.10 | 0.10 | 85 | 1009.9 |
| 20260510034659 | 73 | 132 | 6.0 | 8.0 | 0.00 | 0.10 | 0.10 | 84 | 1009.7 |
| 20260510034159 | 73 | 123 | 5.0 | 7.0 | 0.00 | 0.10 | 0.10 | 82 | 1009.6 |
| 20260510033659 | 73 | 131 | 6.0 | 8.0 | 0.00 | 0.10 | 0.10 | 82 | 1009.5 |
| 20260510032659 | 73 | 110 | 6.0 | 8.0 | 0.00 | 0.10 | 0.10 | 82 | 1009.6 |
| 20260510032200 | 73 | 105 | 6.0 | 7.0 | 0.00 | 0.10 | 0.10 | 84 | 1009.5 |
| 20260510031659 | 73 | 114 | 4.0 | 6.0 | 0.00 | 0.10 | 0.10 | 82 | 1009.5 |
| 20260510030659 | 72 | 104 | 5.0 | 6.0 | 0.00 | 0.10 | 0.10 | 87 | 1009.3 |
| 20260510025659 | 74 | 117 | 1.0 | 3.0 | 0.00 | 0.10 | 0.10 | 82 | 1009.2 |
| 20260510025159 | 74 | 109 | 5.0 | 6.0 | 0.00 | 0.10 | 0.10 | 82 | 1009.1 |
| 20260510024659 | 73 | 92 | 5.0 | 6.0 | 0.00 | 0.10 | 0.10 | 84 | 1009.0 |
| 20260510024159 | 73 | 92 | 5.0 | 7.0 | 0.00 | 0.10 | 0.10 | 85 | 1009.0 |
| 20260510023659 | 73 | 84 | 6.0 | 7.0 | 0.00 | 0.10 | 0.10 | 85 | 1008.9 |
| 20260510023159 | 74 | 93 | 4.0 | 5.0 | 0.00 | 0.10 | 0.10 | 84 | 1008.7 |
| 20260510022658 | 74 | 111 | 2.0 | 5.0 | 0.00 | 0.10 | 0.10 | 83 | 1008.4 |
| 20260510022158 | 75 | 107 | 2.0 | 5.0 | 0.00 | 0.10 | 0.10 | 79 | 1008.3 |
| 20260510021659 | 74 | 107 | 5.0 | 5.0 | 0.00 | 0.10 | 0.10 | 80 | 1008.3 |
| 20260510021159 | 76 | 128 | 2.0 | 5.0 | 0.00 | 0.10 | 0.10 | 78 | 1008.3 |
| 20260510020700 | 77 | 146 | 3.0 | 5.0 | 0.00 | 0.10 | 0.10 | 72 | 1008.1 |
| 20260510020158 | 78 | 169 | 3.0 | 8.0 | 0.00 | 0.10 | 0.10 | 72 | 1007.9 |
| 20260510015658 | 78 | 177 | 5.0 | 8.0 | 0.00 | 0.10 | 0.10 | 72 | 1007.6 |
| 20260510015158 | 78 | 181 | 6.0 | 9.0 | 0.00 | 0.10 | 0.10 | 72 | 1007.6 |
| 20260510014658 | 78 | 172 | 4.0 | 12.0 | 0.00 | 0.10 | 0.10 | 73 | 1007.5 |
| 20260510014158 | 78 | 177 | 6.0 | 12.0 | 0.00 | 0.10 | 0.10 | 75 | 1007.4 |
| 20260510013658 | 78 | 179 | 6.0 | 9.0 | 0.00 | 0.10 | 0.10 | 75 | 1007.7 |
| 20260510013159 | 78 | 168 | 5.0 | 8.0 | 0.00 | 0.10 | 0.10 | 73 | 1007.8 |
| 20260510012657 | 79 | 176 | 6.0 | 10.0 | 0.00 | 0.10 | 0.10 | 73 | 1007.7 |
| 20260510012158 | 79 | 166 | 6.0 | 9.0 | 0.00 | 0.10 | 0.10 | 71 | 1007.8 |
| 20260510011657 | 80 | 161 | 7.0 | 12.0 | 0.00 | 0.10 | 0.10 | 71 | 1007.9 |
| 20260510011158 | 80 | 142 | 8.0 | 10.0 | 0.00 | 0.10 | 0.10 | 71 | 1008.0 |
| 20260510010658 | 80 | 136 | 7.0 | 9.0 | 0.00 | 0.10 | 0.10 | 71 | 1008.1 |
| 20260510010158 | 81 | 148 | 5.0 | 7.0 | 0.00 | 0.10 | 0.10 | 71 | 1008.1 |
| 20260510005657 | 81 | 141 | 5.0 | 7.0 | 0.00 | 0.10 | 0.10 | 70 | 1008.1 |
| 20260510004657 | 82 | 153 | 5.0 | 9.0 | 0.00 | 0.10 | 0.10 | 69 | 1007.9 |
| 20260510004158 | 82 | 151 | 4.0 | 8.0 | 0.00 | 0.10 | 0.10 | 69 | 1007.8 |
| 20260510003658 | 83 | 151 | 5.0 | 7.0 | 0.00 | 0.10 | 0.10 | 69 | 1007.7 |
| 20260510003157 | 83 | 148 | 3.0 | 8.0 | 0.00 | 0.10 | 0.10 | 68 | 1007.8 |
| 20260510002157 | 84 | 141 | 8.0 | 12.0 | 0.00 | 0.10 | 0.10 | 63 | 1007.9 |
| 20260510001657 | 85 | 140 | 10.0 | 13.0 | 0.00 | 0.10 | 0.10 | 62 | 1007.7 |
| 20260510001157 | 85 | 137 | 9.0 | 14.0 | 0.00 | 0.10 | 0.10 | 60 | 1007.6 |
| 20260510000658 | 86 | 136 | 9.0 | 14.0 | 0.00 | 0.10 | 0.10 | 59 | 1007.4 |
| 20260510000157 | 87 | 134 | 10.0 | 13.0 | 0.00 | 0.10 | 0.10 | 57 | 1007.2 |
| 20260509235657 | 88 | 139 | 8.0 | 12.0 | 0.00 | 0.10 | 0.10 | 57 | 1007.3 |
| 20260509235156 | 88 | 145 | 7.0 | 10.0 | 0.00 | 0.10 | 0.10 | 56 | 1007.2 |
| 20260509234656 | 88 | 141 | 7.0 | 10.0 | 0.00 | 0.10 | 0.10 | 55 | 1007.1 |
| 20260509234156 | 89 | 144 | 6.0 | 10.0 | 0.00 | 0.10 | 0.10 | 54 | 1007.2 |
| 20260509233658 | 89 | 148 | 6.0 | 12.0 | 0.00 | 0.10 | 0.10 | 54 | 1007.3 |
| 20260509233157 | 89 | 148 | 7.0 | 10.0 | 0.00 | 0.10 | 0.10 | 54 | 1007.2 |
| 20260509232656 | 90 | 149 | 4.0 | 7.0 | 0.00 | 0.10 | 0.10 | 50 | 1007.2 |
| 20260509232156 | 90 | 157 | 3.0 | 7.0 | 0.00 | 0.10 | 0.10 | 49 | 1007.1 |
| 20260509231656 | 91 | 141 | 6.0 | 9.0 | 0.00 | 0.10 | 0.10 | 48 | 1007.1 |
| 20260509231156 | 90 | 147 | 3.0 | 7.0 | 0.00 | 0.10 | 0.10 | 49 | 1007.1 |
| 20260509230656 | 90 | 135 | 3.0 | 8.0 | 0.00 | 0.10 | 0.10 | 51 | 1007.1 |
| 20260509230157 | 90 | 182 | 3.0 | 6.0 | 0.00 | 0.10 | 0.10 | 49 | 1007.1 |
| 20260509225656 | 90 | 173 | 4.0 | 7.0 | 0.00 | 0.10 | 0.10 | 47 | 1007.1 |
| 20260509225157 | 91 | 135 | 5.0 | 7.0 | 0.00 | 0.10 | 0.10 | 47 | 1007.1 |
| 20260509224655 | 91 | 134 | 6.0 | 9.0 | 0.00 | 0.10 | 0.10 | 47 | 1007.1 |
| 20260509224156 | 91 | 148 | 4.0 | 8.0 | 0.00 | 0.10 | 0.10 | 49 | 1007.1 |
| 20260509223156 | 91 | 116 | 6.0 | 8.0 | 0.00 | 0.10 | 0.10 | 47 | 1007.3 |
| 20260509222656 | 91 | 138 | 5.0 | 7.0 | 0.00 | 0.10 | 0.10 | 48 | 1007.3 |
| 20260509222155 | 91 | 62 | 4.0 | 6.0 | 0.00 | 0.10 | 0.10 | 47 | 1007.2 |
| 20260509221657 | 90 | 132 | 3.0 | 6.0 | 0.00 | 0.10 | 0.10 | 46 | 1007.2 |
| 20260509221155 | 91 | 131 | 5.0 | 7.0 | 0.00 | 0.10 | 0.10 | 47 | 1007.2 |
| 20260509220655 | 93 | 139 | 1.0 | 3.0 | 0.00 | 0.10 | 0.10 | 47 | 1007.1 |
| 20260509220156 | 91 | 214 | 1.0 | 5.0 | 0.00 | 0.10 | 0.10 | 47 | 1007.2 |
| 20260509215656 | 91 | 227 | 2.0 | 6.0 | 0.00 | 0.10 | 0.10 | 51 | 1007.3 |
| 20260509215155 | 91 | 202 | 2.0 | 7.0 | 0.00 | 0.10 | 0.10 | 47 | 1007.3 |
| 20260509214655 | 90 | 144 | 4.0 | 7.0 | 0.00 | 0.10 | 0.10 | 47 | 1007.3 |
| 20260509214155 | 91 | 181 | 5.0 | 7.0 | 0.00 | 0.10 | 0.10 | 50 | 1007.2 |
| 20260509213655 | 90 | 149 | 5.0 | 7.0 | 0.00 | 0.10 | 0.10 | 49 | 1007.2 |
| 20260509213155 | 91 | 161 | 3.0 | 6.0 | 0.00 | 0.10 | 0.10 | 48 | 1007.3 |
| 20260509212655 | 91 | 228 | 4.0 | 6.0 | 0.00 | 0.10 | 0.10 | 49 | 1007.2 |
| 20260509211655 | 91 | 292 | 0.0 | 3.0 | 0.00 | 0.10 | 0.10 | 46 | 1007.3 |
| 20260509211155 | 90 | 265 | 3.0 | 8.0 | 0.00 | 0.10 | 0.10 | 48 | 1007.3 |
| 20260509210654 | 90 | 248 | 3.0 | 7.0 | 0.00 | 0.10 | 0.10 | 47 | 1007.4 |
| 20260509210154 | 91 | 239 | 3.0 | 7.0 | 0.00 | 0.10 | 0.10 | 50 | 1007.4 |
| 20260509205656 | 90 | 246 | 6.0 | 8.0 | 0.00 | 0.10 | 0.10 | 50 | 1007.4 |
| 20260509204155 | 91 | 214 | 3.0 | 9.0 | 0.00 | 0.10 | 0.10 | 48 | 1007.5 |
| 20260509203654 | 91 | 222 | 3.0 | 10.0 | 0.00 | 0.10 | 0.10 | 48 | 1007.6 |
| 20260509203155 | 91 | 265 | 5.0 | 9.0 | 0.00 | 0.10 | 0.10 | 51 | 1007.7 |
| 20260509202154 | 91 | 253 | 6.0 | 8.0 | 0.00 | 0.10 | 0.10 | 48 | 1007.8 |
| 20260509201653 | 91 | 175 | 1.0 | 5.0 | 0.00 | 0.10 | 0.10 | 49 | 1007.8 |
| 20260509201154 | 89 | 231 | 4.0 | 7.0 | 0.00 | 0.10 | 0.10 | 48 | 1007.9 |
| 20260509200655 | 91 | 315 | 6.0 | 7.0 | 0.00 | 0.10 | 0.10 | 49 | 1007.9 |
| 20260509200155 | 90 | 330 | 6.0 | 9.0 | 0.00 | 0.10 | 0.10 | 50 | 1008.0 |
| 20260509195654 | 89 | 302 | 6.0 | 9.0 | 0.00 | 0.10 | 0.10 | 52 | 1008.1 |
| 20260509195153 | 88 | 244 | 1.0 | 9.0 | 0.00 | 0.10 | 0.10 | 50 | 1008.1 |
| 20260509194654 | 89 | 251 | 3.0 | 9.0 | 0.00 | 0.10 | 0.10 | 50 | 1008.2 |
| 20260509194154 | 90 | 230 | 3.0 | 8.0 | 0.00 | 0.10 | 0.10 | 54 | 1008.3 |
| 20260509193654 | 88 | 253 | 4.0 | 7.0 | 0.00 | 0.10 | 0.10 | 53 | 1008.3 |
| 20260509193154 | 89 | 234 | 1.0 | 7.0 | 0.00 | 0.10 | 0.10 | 51 | 1008.4 |
| 20260509192653 | 89 | 199 | 1.0 | 6.0 | 0.00 | 0.10 | 0.10 | 54 | 1008.5 |
| 20260509191654 | 88 | 214 | 2.0 | 6.0 | 0.00 | 0.10 | 0.10 | 54 | 1008.5 |
| 20260509191154 | 88 | 223 | 2.0 | 7.0 | 0.00 | 0.10 | 0.10 | 54 | 1008.7 |
| 20260509190653 | 88 | 241 | 3.0 | 9.0 | 0.00 | 0.10 | 0.10 | 58 | 1008.7 |
| 20260509190154 | 88 | 152 | 3.0 | 7.0 | 0.00 | 0.10 | 0.10 | 58 | 1008.7 |
| 20260509185653 | 88 | 250 | 1.0 | 7.0 | 0.00 | 0.10 | 0.10 | 58 | 1008.7 |
| 20260509185153 | 87 | 263 | 3.0 | 8.0 | 0.00 | 0.10 | 0.10 | 55 | 1008.7 |
| 20260509184652 | 87 | 269 | 0.0 | 5.0 | 0.00 | 0.10 | 0.10 | 56 | 1008.8 |
| 20260509184153 | 87 | 269 | 5.0 | 7.0 | 0.00 | 0.10 | 0.10 | 53 | 1008.9 |
| 20260509183154 | 88 | 244 | 1.0 | 6.0 | 0.00 | 0.10 | 0.10 | 57 | 1009.0 |
| 20260509182653 | 87 | 278 | 1.0 | 12.0 | 0.00 | 0.10 | 0.10 | 56 | 1009.0 |
| 20260509182152 | 88 | 295 | 6.0 | 10.0 | 0.00 | 0.10 | 0.10 | 58 | 1009.0 |
| 20260509180152 | 87 | 315 | 5.0 | 8.0 | 0.00 | 0.10 | 0.10 | 62 | 1009.4 |
| 20260509175653 | 85 | 294 | 6.0 | 12.0 | 0.00 | 0.10 | 0.10 | 61 | 1009.5 |
| 20260509175152 | 86 | 351 | 3.0 | 8.0 | 0.00 | 0.10 | 0.10 | 61 | 1009.5 |
| 20260509174653 | 85 | 335 | 6.0 | 9.0 | 0.00 | 0.10 | 0.10 | 63 | 1009.6 |
| 20260509174152 | 85 | 286 | 6.0 | 12.0 | 0.00 | 0.10 | 0.10 | 64 | 1009.7 |
| 20260509173652 | 85 | 255 | 1.0 | 5.0 | 0.00 | 0.10 | 0.10 | 64 | 1009.7 |
| 20260509173152 | 85 | 76 | 3.0 | 5.0 | 0.00 | 0.10 | 0.10 | 63 | 1009.8 |
| 20260509172652 | 85 | 352 | 3.0 | 7.0 | 0.00 | 0.10 | 0.10 | 63 | 1009.9 |
| 20260509172152 | 86 | 20 | 4.0 | 7.0 | 0.00 | 0.10 | 0.10 | 66 | 1009.9 |
| 20260509171652 | 86 | 281 | 2.0 | 8.0 | 0.00 | 0.10 | 0.10 | 64 | 1010.0 |
| 20260509171154 | 84 | 336 | 3.0 | 7.0 | 0.00 | 0.10 | 0.10 | 64 | 1010.0 |
| 20260509170652 | 84 | 327 | 1.0 | 7.0 | 0.00 | 0.10 | 0.10 | 66 | 1009.8 |
| 20260509165652 | 83 | 353 | 4.0 | 6.0 | 0.00 | 0.10 | 0.10 | 66 | 1009.7 |
| 20260509165152 | 83 | 344 | 4.0 | 9.0 | 0.00 | 0.10 | 0.10 | 66 | 1009.7 |
| 20260509164152 | 83 | 74 | 2.0 | 5.0 | 0.00 | 0.10 | 0.10 | 67 | 1009.6 |
| 20260509163653 | 82 | 37 | 3.0 | 7.0 | 0.00 | 0.10 | 0.10 | 67 | 1009.4 |
| 20260509163152 | 83 | 61 | 4.0 | 7.0 | 0.00 | 0.10 | 0.10 | 69 | 1009.1 |
| 20260509162651 | 82 | 64 | 1.0 | 8.0 | 0.00 | 0.10 | 0.10 | 71 | 1009.2 |
| 20260509160151 | 81 | 255 | 5.0 | 6.0 | 0.00 | 0.10 | 0.10 | 78 | 1009.4 |
| 20260509155651 | 81 | 283 | 6.0 | 8.0 | 0.00 | 0.10 | 0.10 | 78 | 1009.2 |
| 20260509155151 | 81 | 236 | 7.0 | 7.0 | 0.00 | 0.10 | 0.10 | 79 | 1009.4 |
| 20260509154651 | 80 | 279 | 5.0 | 7.0 | 0.00 | 0.10 | 0.10 | 81 | 1009.4 |
| 20260509154152 | 79 | 271 | 7.0 | 10.0 | 0.00 | 0.10 | 0.10 | 81 | 1009.3 |
| 20260509153652 | 79 | 259 | 6.0 | 8.0 | 0.00 | 0.10 | 0.10 | 82 | 1009.2 |
| 20260509153151 | 79 | 248 | 10.0 | 13.0 | 0.00 | 0.10 | 0.10 | 81 | 1009.4 |
| 20260509152651 | 79 | 246 | 7.0 | 8.0 | 0.00 | 0.10 | 0.10 | 86 | 1009.3 |
| 20260509152150 | 78 | 224 | 3.0 | 7.0 | 0.00 | 0.10 | 0.10 | 87 | 1009.2 |
| 20260509151151 | 78 | 246 | 7.0 | 9.0 | 0.00 | 0.10 | 0.10 | 88 | 1009.4 |
| 20260509150150 | 77 | 331 | 2.0 | 7.0 | 0.00 | 0.10 | 0.10 | 91 | 1009.2 |
| 20260509145650 | 77 | 193 | 3.0 | 8.0 | 0.00 | 0.10 | 0.10 | 91 | 1009.1 |
| 20260509145150 | 77 | 237 | 3.0 | 7.0 | 0.01 | 0.10 | 0.10 | 91 | 1009.6 |
| 20260509144650 | 77 | 250 | 5.0 | 7.0 | 0.01 | 0.11 | 0.10 | 91 | 1009.8 |
| 20260509144150 | 77 | 254 | 6.0 | 7.0 | 0.01 | 0.11 | 0.10 | 91 | 1010.0 |
| 20260509143651 | 77 | 277 | 7.0 | 9.0 | 0.01 | 0.11 | 0.10 | 91 | 1010.0 |
| 20260509143152 | 77 | 285 | 7.0 | 8.0 | 0.01 | 0.11 | 0.10 | 91 | 1010.0 |
| 20260509142650 | 77 | 267 | 6.0 | 8.0 | 0.01 | 0.11 | 0.10 | 91 | 1009.7 |
| 20260509142150 | 77 | 245 | 6.0 | 8.0 | 0.01 | 0.11 | 0.10 | 89 | 1009.7 |
| 20260509141650 | 77 | 253 | 7.0 | 8.0 | 0.01 | 0.11 | 0.10 | 89 | 1009.6 |
| 20260509140650 | 77 | 279 | 1.0 | 3.0 | 0.01 | 0.11 | 0.10 | 91 | 1009.9 |
| 20260509140151 | 76 | 279 | 1.0 | 3.0 | 0.01 | 0.11 | 0.10 | 91 | 1009.8 |
| 20260509135150 | 76 | 234 | 3.0 | 3.0 | 0.00 | 0.10 | 0.09 | 92 | 1010.0 |
| 20260509134149 | 75 | 232 | 3.0 | 5.0 | 0.00 | 0.11 | 0.09 | 90 | 1010.1 |
| 20260509133650 | 75 | 243 | 5.0 | 9.0 | 0.00 | 0.11 | 0.09 | 89 | 1010.1 |
| 20260509133151 | 75 | 248 | 7.0 | 8.0 | 0.00 | 0.12 | 0.09 | 91 | 1009.9 |
| 20260509132649 | 76 | 224 | 2.0 | 8.0 | 0.00 | 0.13 | 0.09 | 88 | 1009.8 |
| 20260509132149 | 75 | 242 | 7.0 | 9.0 | 0.00 | 0.13 | 0.09 | 88 | 1009.8 |
| 20260509131649 | 75 | 280 | 7.0 | 10.0 | 0.00 | 0.13 | 0.09 | 87 | 1009.5 |
| 20260509131149 | 76 | 273 | 5.0 | 12.0 | 0.00 | 0.13 | 0.09 | 86 | 1009.8 |
| 20260509130150 | 77 | 313 | 14.0 | 38.0 | 0.02 | 0.13 | 0.09 | 82 | 1009.8 |
| 20260509125649 | 77 | 225 | 8.0 | 14.0 | 0.03 | 0.13 | 0.09 | 82 | 1008.9 |
| 20260509125149 | 76 | 323 | 20.0 | 26.0 | 0.03 | 0.13 | 0.09 | 89 | 1009.0 |
| 20260509124649 | 75 | 326 | 13.0 | 20.0 | 0.04 | 0.13 | 0.09 | 94 | 1008.8 |
| 20260509124149 | 75 | 317 | 6.0 | 14.0 | 0.05 | 0.13 | 0.09 | 96 | 1008.7 |
| 20260509123650 | 74 | 183 | 9.0 | 15.0 | 0.06 | 0.13 | 0.09 | 98 | 1007.6 |
| 20260509123149 | 74 | 166 | 16.0 | 32.0 | 0.07 | 0.13 | 0.09 | 98 | 1007.4 |
| 20260509120149 | 74 | 143 | 20.0 | 28.0 | 0.08 | 0.13 | 0.09 | 99 | 1007.8 |
| 20260509115649 | 74 | 144 | 20.0 | 29.0 | 0.08 | 0.13 | 0.09 | 99 | 1007.8 |
| 20260509115149 | 74 | 136 | 20.0 | 30.0 | 0.08 | 0.13 | 0.09 | 99 | 1008.0 |
| 20260509114648 | 74 | 159 | 11.0 | 18.0 | 0.09 | 0.13 | 0.09 | 99 | 1009.3 |
| 20260509114149 | 74 | 170 | 7.0 | 14.0 | 0.08 | 0.12 | 0.08 | 99 | 1010.0 |
| 20260509113149 | 75 | 152 | 5.0 | 7.0 | 0.06 | 0.10 | 0.06 | 100 | 1010.7 |
| 20260509111648 | 74 | 146 | 6.0 | 10.0 | 0.04 | 0.08 | 0.04 | 100 | 1010.3 |
| 20260509111148 | 75 | 139 | 8.0 | 12.0 | 0.03 | 0.07 | 0.03 | 100 | 1010.4 |
| 20260509110648 | 74 | 122 | 9.0 | 14.0 | 0.02 | 0.06 | 0.02 | 100 | 1010.1 |
| 20260509110148 | 74 | 135 | 9.0 | 12.0 | 0.01 | 0.05 | 0.01 | 99 | 1010.0 |
| 20260509105649 | 74 | 143 | 7.0 | 8.0 | 0.01 | 0.05 | 0.01 | 99 | 1009.7 |
| 20260509104647 | 74 | 62 | 6.0 | 10.0 | 0.00 | 0.04 | 0.00 | 99 | 1009.5 |
| 20260509104148 | 74 | 28 | 4.0 | 7.0 | 0.00 | 0.04 | 0.00 | 99 | 1009.5 |
| 20260509103147 | 74 | 183 | 5.0 | 6.0 | 0.00 | 0.04 | 0.00 | 99 | 1009.0 |
| 20260509102648 | 74 | 256 | 0.0 | 3.0 | 0.00 | 0.04 | 0.00 | 99 | 1009.0 |
| 20260509102147 | 74 | 256 | 2.0 | 3.0 | 0.00 | 0.04 | 0.00 | 99 | 1009.1 |
| 20260509101647 | 74 | 256 | 2.0 | 3.0 | 0.00 | 0.04 | 0.00 | 99 | 1009.2 |
| 20260509101148 | 74 | 158 | 1.0 | 2.0 | 0.00 | 0.04 | 0.00 | 99 | 1009.3 |
| 20260509100649 | 74 | 126 | 1.0 | 2.0 | 0.00 | 0.04 | 0.00 | 99 | 1009.0 |
| 20260509100147 | 74 | 128 | 2.0 | 5.0 | 0.00 | 0.04 | 0.00 | 99 | 1008.8 |
| 20260509095147 | 74 | 118 | 2.0 | 5.0 | 0.00 | 0.04 | 0.00 | 99 | 1008.6 |
| 20260509094646 | 74 | 142 | 1.0 | 3.0 | 0.00 | 0.04 | 0.00 | 99 | 1008.7 |
| 20260509093647 | 74 | 112 | 3.0 | 5.0 | 0.00 | 0.04 | 0.00 | 99 | 1008.5 |
| 20260509093147 | 74 | 134 | 3.0 | 5.0 | 0.00 | 0.04 | 0.00 | 99 | 1008.7 |
| 20260509092647 | 74 | 128 | 3.0 | 5.0 | 0.00 | 0.04 | 0.00 | 99 | 1008.6 |
| 20260509092148 | 75 | 140 | 3.0 | 3.0 | 0.00 | 0.04 | 0.00 | 99 | 1008.6 |
| 20260509091147 | 74 | 140 | 4.0 | 5.0 | 0.00 | 0.04 | 0.00 | 99 | 1008.5 |
| 20260509090147 | 75 | 146 | 5.0 | 5.0 | 0.00 | 0.04 | 0.00 | 99 | 1008.6 |
| 20260509085648 | 75 | 157 | 2.0 | 3.0 | 0.00 | 0.04 | 0.00 | 99 | 1008.6 |
| 20260509084646 | 75 | 117 | 2.0 | 3.0 | 0.00 | 0.04 | 0.00 | 99 | 1008.3 |
| 20260509084147 | 75 | 105 | 3.0 | 5.0 | 0.00 | 0.04 | 0.00 | 99 | 1008.2 |
| 20260509083646 | 74 | 93 | 5.0 | 7.0 | 0.00 | 0.04 | 0.00 | 99 | 1008.0 |
| 20260509083146 | 74 | 89 | 5.0 | 7.0 | 0.00 | 0.04 | 0.00 | 99 | 1008.0 |
| 20260509082646 | 75 | 82 | 5.0 | 6.0 | 0.00 | 0.04 | 0.00 | 99 | 1008.2 |
| 20260509082146 | 75 | 72 | 5.0 | 6.0 | 0.00 | 0.04 | 0.00 | 99 | 1008.4 |
| 20260509081146 | 75 | 81 | 5.0 | 8.0 | 0.00 | 0.04 | 0.00 | 98 | 1008.5 |
| 20260509075646 | 75 | 57 | 6.0 | 8.0 | 0.00 | 0.04 | 0.00 | 98 | 1008.4 |
| 20260509075148 | 75 | 57 | 5.0 | 6.0 | 0.00 | 0.04 | 0.00 | 98 | 1008.6 |
| 20260509074646 | 75 | 67 | 5.0 | 7.0 | 0.00 | 0.04 | 0.00 | 98 | 1008.8 |
| 20260509074147 | 75 | 62 | 5.0 | 6.0 | 0.00 | 0.04 | 0.00 | 98 | 1009.0 |
| 20260509073646 | 75 | 65 | 5.0 | 6.0 | 0.00 | 0.04 | 0.00 | 98 | 1009.0 |
| 20260509072647 | 75 | 78 | 5.0 | 6.0 | 0.00 | 0.04 | 0.00 | 98 | 1009.1 |
| 20260509072145 | 75 | 94 | 5.0 | 6.0 | 0.00 | 0.04 | 0.00 | 98 | 1009.2 |
| 20260509071645 | 75 | 94 | 3.0 | 3.0 | 0.00 | 0.04 | 0.00 | 98 | 1009.2 |